FDX842 TNCA-KMIA

Flight info

Callsign FDX842
Flight time 2h 28m
Altitude 34000
Route WALLP DCT DIBOK UL795 ALTIB UM779 ZEUSS VIICE2
Aircraft MD11/H-SDE1E2E3FGHIJ2J3J4J5M1RWXY/LB1D1

Departure

Time 2026-05-05 01:02
Airport Queen Beatrix International Airport (TNCA)

Arrival

Time 2026-05-05 03:30
Airport Miami International Airport (KMIA)
Time Latitude Longitude Altitude Speed Heading
2026-05-05 00:49 12.50220 -70.00577 74 ft 0 kts 14°
2026-05-05 00:52 12.50208 -70.00580 73 ft 0 kts 13°
2026-05-05 00:53 12.50197 -70.00582 73 ft 2 kts
2026-05-05 00:53 12.50182 -70.00580 73 ft 2 kts 339°
2026-05-05 00:53 12.50169 -70.00572 73 ft 2 kts 320°
2026-05-05 00:53 12.50159 -70.00562 73 ft 2 kts 300°
2026-05-05 00:54 12.50155 -70.00550 73 ft 0 kts 284°
2026-05-05 00:54 12.50154 -70.00546 73 ft 0 kts 283°
2026-05-05 00:56 12.50155 -70.00555 73 ft 4 kts 283°
2026-05-05 00:57 12.50170 -70.00623 72 ft 13 kts 275°
2026-05-05 00:57 12.50179 -70.00732 72 ft 16 kts 282°
2026-05-05 00:57 12.50210 -70.00854 69 ft 18 kts 284°
2026-05-05 00:57 12.50244 -70.00992 67 ft 17 kts 284°
2026-05-05 00:58 12.50255 -70.01090 65 ft 13 kts 249°
2026-05-05 00:58 12.50233 -70.01169 63 ft 11 kts 278°
2026-05-05 00:58 12.50260 -70.01283 59 ft 21 kts 284°
2026-05-05 00:58 12.50301 -70.01454 55 ft 27 kts 283°
2026-05-05 00:59 12.50350 -70.01656 48 ft 30 kts 284°
2026-05-05 00:59 12.50401 -70.01869 41 ft 26 kts 283°
2026-05-05 00:59 12.50446 -70.02060 36 ft 26 kts 284°
2026-05-05 00:59 12.50488 -70.02235 32 ft 25 kts 283°
2026-05-05 01:00 12.50532 -70.02421 30 ft 27 kts 283°
2026-05-05 01:00 12.50569 -70.02576 29 ft 17 kts 284°
2026-05-05 01:00 12.50566 -70.02668 28 ft 12 kts 242°
2026-05-05 01:00 12.50506 -70.02726 28 ft 11 kts 200°
2026-05-05 01:01 12.50433 -70.02730 28 ft 9 kts 141°
2026-05-05 01:01 12.50402 -70.02637 29 ft 25 kts 102°
2026-05-05 01:01 12.50299 -70.02197 34 ft 101 kts 103°
2026-05-05 01:01 12.50077 -70.01268 61 ft 163 kts 102°
2026-05-05 01:02 12.49794 -70.00062 472 ft 177 kts 103°
2026-05-05 01:02 12.49490 -69.98868 1195 ft 175 kts 102°
2026-05-05 01:02 12.49208 -69.97682 1889 ft 180 kts 102°
2026-05-05 01:02 12.48900 -69.96361 2216 ft 201 kts 102°
2026-05-05 01:03 12.48599 -69.94905 2687 ft 217 kts 92°
2026-05-05 01:03 12.48898 -69.93349 3220 ft 236 kts 64°
2026-05-05 01:03 12.50022 -69.92070 3899 ft 255 kts 38°
2026-05-05 01:03 12.51621 -69.91152 4557 ft 271 kts 29°
2026-05-05 01:04 12.53444 -69.90472 5233 ft 286 kts 19°
2026-05-05 01:04 12.57183 -69.88976 6739 ft 299 kts 17°
2026-05-05 01:04 12.59224 -69.88477 7597 ft 303 kts 15°
2026-05-05 01:05 12.61290 -69.88003 8447 ft 304 kts 15°
2026-05-05 01:05 12.63333 -69.87524 9254 ft 306 kts 16°
2026-05-05 01:05 12.65429 -69.87019 10062 ft 307 kts 16°
2026-05-05 01:05 12.67557 -69.86499 10455 ft 326 kts 16°
2026-05-05 01:06 12.69842 -69.85934 10530 ft 354 kts 16°
2026-05-05 01:06 12.72346 -69.85321 10631 ft 380 kts 15°
2026-05-05 01:06 12.74955 -69.84686 11122 ft 392 kts 15°
2026-05-05 01:06 12.77655 -69.84029 11800 ft 399 kts 15°
2026-05-05 01:07 12.80386 -69.83361 12546 ft 403 kts 15°
2026-05-05 01:07 12.83099 -69.82697 13259 ft 407 kts 15°
2026-05-05 01:07 12.85882 -69.82014 13956 ft 411 kts 15°
2026-05-05 01:07 12.88689 -69.81325 14656 ft 415 kts 15°
2026-05-05 01:08 12.91526 -69.80738 15273 ft 421 kts
2026-05-05 01:08 12.94488 -69.80788 15899 ft 429 kts 353°
2026-05-05 01:08 12.97381 -69.81610 16551 ft 435 kts 338°
2026-05-05 01:08 13.00024 -69.83147 17154 ft 441 kts 324°
2026-05-05 01:09 13.02290 -69.85308 17750 ft 446 kts 313°
2026-05-05 01:09 13.04307 -69.87714 18438 ft 447 kts 311°
2026-05-05 01:09 13.06327 -69.90107 19067 ft 449 kts 312°
2026-05-05 01:09 13.08415 -69.92508 19697 ft 450 kts 313°
2026-05-05 01:10 13.10509 -69.94873 20303 ft 452 kts 313°
2026-05-05 01:10 13.12629 -69.97247 20906 ft 453 kts 314°
2026-05-05 01:10 13.14761 -69.99625 21500 ft 454 kts 314°
2026-05-05 01:10 13.16903 -70.02010 22060 ft 456 kts 314°
2026-05-05 01:11 13.19065 -70.04414 22624 ft 458 kts 314°
2026-05-05 01:11 13.21234 -70.06825 23142 ft 460 kts 314°
2026-05-05 01:11 13.23403 -70.09235 23611 ft 463 kts 314°
2026-05-05 01:11 13.25593 -70.11668 24084 ft 466 kts 313°
2026-05-05 01:12 13.27791 -70.14111 24533 ft 469 kts 313°
2026-05-05 01:12 13.30036 -70.16606 24992 ft 472 kts 313°
2026-05-05 01:12 13.32258 -70.19076 25423 ft 474 kts 313°
2026-05-05 01:12 13.34506 -70.21574 25840 ft 477 kts 313°
2026-05-05 01:13 13.36767 -70.24086 26336 ft 478 kts 313°
2026-05-05 01:13 13.39017 -70.26588 26800 ft 479 kts 313°
2026-05-05 01:13 13.41282 -70.29103 27163 ft 483 kts 313°
2026-05-05 01:13 13.43581 -70.31657 27566 ft 485 kts 313°
2026-05-05 01:14 13.45861 -70.34190 27955 ft 487 kts 313°
2026-05-05 01:14 13.48171 -70.36755 28337 ft 489 kts 313°
2026-05-05 01:14 13.50485 -70.39324 28954 ft 486 kts 313°
2026-05-05 01:14 13.52760 -70.41853 29449 ft 486 kts 313°
2026-05-05 01:15 13.55060 -70.44408 29945 ft 485 kts 313°
2026-05-05 01:15 13.57337 -70.46934 30423 ft 484 kts 313°
2026-05-05 01:15 13.59623 -70.49479 30893 ft 483 kts 312°
2026-05-05 01:15 13.61887 -70.52020 31349 ft 482 kts 312°
2026-05-05 01:16 13.64151 -70.54562 31777 ft 481 kts 312°
2026-05-05 01:16 13.66393 -70.57079 32195 ft 479 kts 312°
2026-05-05 01:16 13.68639 -70.59598 32573 ft 478 kts 312°
2026-05-05 01:16 13.70930 -70.62167 32962 ft 477 kts 312°
2026-05-05 01:17 13.73210 -70.64723 33345 ft 477 kts 312°
2026-05-05 01:17 13.75446 -70.67228 33732 ft 475 kts 312°
2026-05-05 01:17 13.77726 -70.69782 33921 ft 477 kts 312°
2026-05-05 01:17 13.79999 -70.72330 33920 ft 478 kts 312°
2026-05-05 01:18 13.84501 -70.77373 33931 ft 476 kts 312°
2026-05-05 01:18 13.88975 -70.82383 33938 ft 475 kts 312°
2026-05-05 01:19 13.93434 -70.87376 33940 ft 475 kts 312°
2026-05-05 01:19 13.97906 -70.92382 33943 ft 475 kts 312°
2026-05-05 01:20 14.02364 -70.97370 33945 ft 474 kts 312°
2026-05-05 01:20 14.06841 -71.02380 33951 ft 474 kts 312°
2026-05-05 01:21 14.11294 -71.07361 33952 ft 474 kts 311°
2026-05-05 01:21 14.15764 -71.12369 33944 ft 474 kts 311°
2026-05-05 01:22 14.20206 -71.17394 33946 ft 475 kts 311°
2026-05-05 01:22 14.24666 -71.22438 33949 ft 475 kts 311°
2026-05-05 01:23 14.29119 -71.27470 33948 ft 475 kts 311°
2026-05-05 01:23 14.33563 -71.32489 33954 ft 475 kts 311°
2026-05-05 01:24 14.38008 -71.37508 33956 ft 475 kts 311°
2026-05-05 01:24 14.42476 -71.42554 33951 ft 475 kts 311°
2026-05-05 01:25 14.46930 -71.47580 33950 ft 475 kts 311°
2026-05-05 01:25 14.51359 -71.52579 33952 ft 474 kts 311°
2026-05-05 01:26 14.55833 -71.57627 33965 ft 476 kts 311°
2026-05-05 01:26 14.60324 -71.62691 33959 ft 479 kts 311°
2026-05-05 01:27 14.64808 -71.67748 33948 ft 479 kts 311°
2026-05-05 01:27 14.69324 -71.72839 33945 ft 479 kts 311°
2026-05-05 01:28 14.73800 -71.77915 33950 ft 478 kts 311°
2026-05-05 01:28 14.78256 -71.82999 33948 ft 478 kts 311°
2026-05-05 01:29 14.82743 -71.88115 33945 ft 478 kts 311°
2026-05-05 01:29 14.87205 -71.93198 33951 ft 478 kts 311°
2026-05-05 01:30 14.91672 -71.98287 33959 ft 478 kts 311°
2026-05-05 01:30 14.96148 -72.03381 33965 ft 479 kts 311°
2026-05-05 01:31 15.00625 -72.08476 33964 ft 479 kts 311°
2026-05-05 01:31 15.05103 -72.13571 33960 ft 479 kts 311°
2026-05-05 01:32 15.09583 -72.18668 33964 ft 479 kts 311°
2026-05-05 01:32 15.14047 -72.23744 33964 ft 478 kts 311°
2026-05-05 01:33 15.18533 -72.28845 33969 ft 478 kts 311°
2026-05-05 01:33 15.23003 -72.33926 33970 ft 478 kts 311°
2026-05-05 01:34 15.27455 -72.38989 33973 ft 478 kts 310°
2026-05-05 01:34 15.31919 -72.44125 33972 ft 478 kts 310°
2026-05-05 01:35 15.36351 -72.49223 33969 ft 478 kts 310°
2026-05-05 01:35 15.40819 -72.54359 33967 ft 478 kts 310°
2026-05-05 01:36 15.45257 -72.59456 33975 ft 477 kts 310°
2026-05-05 01:36 15.49697 -72.64557 33969 ft 477 kts 310°
2026-05-05 01:37 15.54138 -72.69656 33964 ft 477 kts 310°
2026-05-05 01:37 15.58594 -72.74769 33967 ft 476 kts 310°
2026-05-05 01:38 15.63034 -72.79862 33969 ft 477 kts 310°
2026-05-05 01:38 15.67475 -72.84956 33966 ft 477 kts 310°
2026-05-05 01:39 15.71914 -72.90048 33968 ft 476 kts 310°
2026-05-05 01:39 15.76373 -72.95163 33963 ft 477 kts 310°
2026-05-05 01:40 15.80829 -73.00272 33960 ft 476 kts 310°
2026-05-05 01:40 15.85237 -73.05349 33965 ft 475 kts 310°
2026-05-05 01:41 15.89656 -73.10480 33968 ft 475 kts 310°
2026-05-05 01:41 15.94054 -73.15576 33968 ft 475 kts 310°
2026-05-05 01:42 15.98478 -73.20702 33971 ft 475 kts 310°
2026-05-05 01:42 16.02904 -73.25829 33968 ft 475 kts 310°
2026-05-05 01:43 16.07302 -73.30920 33967 ft 474 kts 310°
2026-05-05 01:43 16.11703 -73.36014 33968 ft 474 kts 310°
2026-05-05 01:44 16.16090 -73.41090 33973 ft 473 kts 310°
2026-05-05 01:44 16.20505 -73.46196 33979 ft 473 kts 310°
2026-05-05 01:45 16.24899 -73.51278 33969 ft 472 kts 310°
2026-05-05 01:45 16.29274 -73.56337 33977 ft 472 kts 310°
2026-05-05 01:46 16.33759 -73.61365 33985 ft 473 kts 314°
2026-05-05 01:46 16.38762 -73.65833 33981 ft 476 kts 321°
2026-05-05 01:47 16.44255 -73.69733 33988 ft 476 kts 324°
2026-05-05 01:47 16.49777 -73.73558 33985 ft 475 kts 324°
2026-05-05 01:48 16.55261 -73.77359 33986 ft 475 kts 324°
2026-05-05 01:48 16.60775 -73.81177 33984 ft 475 kts 324°
2026-05-05 01:49 16.66284 -73.84992 33990 ft 474 kts 324°
2026-05-05 01:49 16.71784 -73.88802 33996 ft 473 kts 324°
2026-05-05 01:50 16.77271 -73.92601 33999 ft 474 kts 324°
2026-05-05 01:50 16.82757 -73.96397 33995 ft 474 kts 324°
2026-05-05 01:51 16.88252 -74.00201 34001 ft 473 kts 324°
2026-05-05 01:51 16.93725 -74.03987 34009 ft 472 kts 324°
2026-05-05 01:52 16.99210 -74.07783 34005 ft 472 kts 324°
2026-05-05 01:52 17.04702 -74.11583 34000 ft 471 kts 324°
2026-05-05 01:53 17.10157 -74.15356 34000 ft 471 kts 324°
2026-05-05 01:53 17.15654 -74.19184 34001 ft 471 kts 323°
2026-05-05 01:54 17.21098 -74.22996 34004 ft 472 kts 323°
2026-05-05 01:54 17.26577 -74.26827 34002 ft 471 kts 323°
2026-05-05 01:55 17.32013 -74.30626 33996 ft 471 kts 323°
2026-05-05 01:55 17.37476 -74.34443 33996 ft 470 kts 323°
2026-05-05 01:56 17.42903 -74.38235 34001 ft 470 kts 323°
2026-05-05 01:56 17.48350 -74.42040 33999 ft 470 kts 323°
2026-05-05 01:57 17.53822 -74.45863 33997 ft 470 kts 323°
2026-05-05 01:57 17.59262 -74.49661 33997 ft 469 kts 323°
2026-05-05 01:58 17.64683 -74.53448 33990 ft 469 kts 323°
2026-05-05 01:58 17.70101 -74.57229 33986 ft 469 kts 323°
2026-05-05 01:59 17.75564 -74.61044 33993 ft 468 kts 323°
2026-05-05 01:59 17.80995 -74.64835 33995 ft 469 kts 323°
2026-05-05 02:00 17.86402 -74.68649 33987 ft 469 kts 323°
2026-05-05 02:00 17.91818 -74.72475 33984 ft 469 kts 323°
2026-05-05 02:01 17.97221 -74.76290 33991 ft 468 kts 323°
2026-05-05 02:01 18.02635 -74.80110 33993 ft 468 kts 323°
2026-05-05 02:02 18.08058 -74.83935 33992 ft 468 kts 323°
2026-05-05 02:02 18.13482 -74.87760 33989 ft 468 kts 322°
2026-05-05 02:03 18.18901 -74.91584 33995 ft 467 kts 322°
2026-05-05 02:03 18.24287 -74.95381 33995 ft 467 kts 323°
2026-05-05 02:04 18.29708 -74.99202 33993 ft 467 kts 322°
2026-05-05 02:04 18.35104 -75.03006 33989 ft 467 kts 322°
2026-05-05 02:05 18.40509 -75.06817 33984 ft 466 kts 322°
2026-05-05 02:05 18.45896 -75.10612 33988 ft 465 kts 322°
2026-05-05 02:06 18.51259 -75.14392 33988 ft 466 kts 322°
2026-05-05 02:06 18.56631 -75.18252 33991 ft 465 kts 321°
2026-05-05 02:07 18.61859 -75.22251 33992 ft 465 kts 320°
2026-05-05 02:07 18.67077 -75.26325 33981 ft 464 kts 320°
2026-05-05 02:08 18.72268 -75.30382 33987 ft 464 kts 320°
2026-05-05 02:08 18.77455 -75.34430 33998 ft 463 kts 320°
2026-05-05 02:09 18.82669 -75.38502 34009 ft 463 kts 320°
2026-05-05 02:09 18.87836 -75.42537 34007 ft 463 kts 320°
2026-05-05 02:10 18.93045 -75.46603 34003 ft 463 kts 320°
2026-05-05 02:10 18.98220 -75.50642 34007 ft 463 kts 320°
2026-05-05 02:11 19.03400 -75.54681 34017 ft 463 kts 320°
2026-05-05 02:11 19.08613 -75.58748 34011 ft 463 kts 319°
2026-05-05 02:12 19.16373 -75.64801 34015 ft 462 kts 319°
2026-05-05 02:13 19.21532 -75.68825 34007 ft 462 kts 319°
2026-05-05 02:13 19.26700 -75.72855 34123 ft 462 kts 319°
2026-05-05 02:13 19.29299 -75.74890 34644 ft 458 kts 319°
2026-05-05 02:14 19.31827 -75.76881 34945 ft 458 kts 319°
2026-05-05 02:14 19.34394 -75.78905 35174 ft 458 kts 319°
2026-05-05 02:14 19.36930 -75.80904 35458 ft 457 kts 319°
2026-05-05 02:14 19.39500 -75.82925 35753 ft 455 kts 319°
2026-05-05 02:15 19.42033 -75.84917 36008 ft 455 kts 318°
2026-05-05 02:15 19.47105 -75.88908 36018 ft 455 kts 319°
2026-05-05 02:16 19.52181 -75.92902 36018 ft 455 kts 319°
2026-05-05 02:16 19.57255 -75.96890 36017 ft 454 kts 319°
2026-05-05 02:17 19.62347 -76.00895 36018 ft 454 kts 318°
2026-05-05 02:17 19.67379 -76.04896 36015 ft 454 kts 318°
2026-05-05 02:18 19.72429 -76.08910 36021 ft 454 kts 318°
2026-05-05 02:18 19.77505 -76.12940 36024 ft 453 kts 318°
2026-05-05 02:19 19.82550 -76.16943 36028 ft 452 kts 318°
2026-05-05 02:19 19.87565 -76.20925 36028 ft 452 kts 318°
2026-05-05 02:20 19.92631 -76.24945 36023 ft 452 kts 318°
2026-05-05 02:20 19.97648 -76.28924 36030 ft 452 kts 318°
2026-05-05 02:21 20.02698 -76.32926 36048 ft 451 kts 317°
2026-05-05 02:21 20.07723 -76.36912 36059 ft 451 kts 318°
2026-05-05 02:22 20.12778 -76.40920 36061 ft 451 kts 317°
2026-05-05 02:22 20.17825 -76.44920 36054 ft 451 kts 318°
2026-05-05 02:23 20.22854 -76.48906 36049 ft 451 kts 317°
2026-05-05 02:23 20.27885 -76.52894 36051 ft 451 kts 318°
2026-05-05 02:24 20.32915 -76.56908 36046 ft 451 kts 317°
2026-05-05 02:24 20.37928 -76.60911 36032 ft 450 kts 317°
2026-05-05 02:25 20.42941 -76.64915 36024 ft 451 kts 317°
2026-05-05 02:25 20.47972 -76.68946 36022 ft 451 kts 317°
2026-05-05 02:26 20.52971 -76.72949 36020 ft 450 kts 317°
2026-05-05 02:26 20.57972 -76.76950 36019 ft 450 kts 317°
2026-05-05 02:27 20.62990 -76.80969 36014 ft 450 kts 317°
2026-05-05 02:27 20.68016 -76.84989 36009 ft 450 kts 317°
2026-05-05 02:28 20.73030 -76.88998 36011 ft 450 kts 317°
2026-05-05 02:28 20.78052 -76.93014 36018 ft 450 kts 317°
2026-05-05 02:29 20.83065 -76.97022 36023 ft 449 kts 317°
2026-05-05 02:29 20.88067 -77.01022 36017 ft 449 kts 317°
2026-05-05 02:30 20.93073 -77.05026 36010 ft 448 kts 317°
2026-05-05 02:30 20.98036 -77.09036 36012 ft 447 kts 317°
2026-05-05 02:31 21.02993 -77.13040 36025 ft 447 kts 317°
2026-05-05 02:31 21.07981 -77.17069 36020 ft 448 kts 317°
2026-05-05 02:32 21.12962 -77.21086 36014 ft 448 kts 316°
2026-05-05 02:32 21.17918 -77.25085 36007 ft 448 kts 317°
2026-05-05 02:33 21.22889 -77.29095 36011 ft 447 kts 317°
2026-05-05 02:33 21.27868 -77.33109 36019 ft 446 kts 317°
2026-05-05 02:34 21.32829 -77.37108 36014 ft 446 kts 317°
2026-05-05 02:34 21.37803 -77.41117 36012 ft 446 kts 317°
2026-05-05 02:35 21.42756 -77.45134 36018 ft 446 kts 316°
2026-05-05 02:35 21.47690 -77.49170 36006 ft 446 kts 316°
2026-05-05 02:36 21.52633 -77.53206 36004 ft 446 kts 316°
2026-05-05 02:36 21.57568 -77.57233 36011 ft 446 kts 316°
2026-05-05 02:37 21.62515 -77.61271 36002 ft 446 kts 316°
2026-05-05 02:37 21.67451 -77.65294 36002 ft 445 kts 316°
2026-05-05 02:38 21.72375 -77.69308 36005 ft 444 kts 316°
2026-05-05 02:38 21.77308 -77.73332 36015 ft 443 kts 316°
2026-05-05 02:39 21.82198 -77.77314 36002 ft 442 kts 316°
2026-05-05 02:39 21.87103 -77.81313 35987 ft 443 kts 316°
2026-05-05 02:40 21.92034 -77.85342 36002 ft 443 kts 316°
2026-05-05 02:40 21.96934 -77.89426 36011 ft 442 kts 316°
2026-05-05 02:41 22.01809 -77.93481 36006 ft 442 kts 316°
2026-05-05 02:41 22.06677 -77.97528 36016 ft 442 kts 316°
2026-05-05 02:42 22.11551 -78.01574 36009 ft 441 kts 316°
2026-05-05 02:42 22.16385 -78.05588 36003 ft 440 kts 316°
2026-05-05 02:43 22.21226 -78.09602 36011 ft 440 kts 316°
2026-05-05 02:43 22.26091 -78.13640 36015 ft 440 kts 316°
2026-05-05 02:44 22.30942 -78.17667 36000 ft 440 kts 316°
2026-05-05 02:44 22.35785 -78.21684 36006 ft 439 kts 316°
2026-05-05 02:45 22.40622 -78.25693 36005 ft 438 kts 316°
2026-05-05 02:45 22.45483 -78.29724 36010 ft 438 kts 316°
2026-05-05 02:46 22.50328 -78.33738 36006 ft 438 kts 316°
2026-05-05 02:46 22.55151 -78.37743 36013 ft 439 kts 316°
2026-05-05 02:47 22.60014 -78.41784 36001 ft 438 kts 316°
2026-05-05 02:47 22.64836 -78.45800 36002 ft 438 kts 316°
2026-05-05 02:48 22.69669 -78.49813 36002 ft 439 kts 316°
2026-05-05 02:48 22.74591 -78.53743 35992 ft 443 kts 322°
2026-05-05 02:49 22.80201 -78.56641 35989 ft 455 kts 334°
2026-05-05 02:49 22.86491 -78.58161 35999 ft 465 kts 343°
2026-05-05 02:50 22.92886 -78.59302 36007 ft 465 kts 343°
2026-05-05 02:50 22.99256 -78.60483 36004 ft 464 kts 343°
2026-05-05 02:51 23.05624 -78.61687 36001 ft 463 kts 343°
2026-05-05 02:51 23.11964 -78.62893 35999 ft 463 kts 343°
2026-05-05 02:52 23.18306 -78.64091 35991 ft 462 kts 343°
2026-05-05 02:52 23.24662 -78.65294 35991 ft 462 kts 342°
2026-05-05 02:53 23.30990 -78.66494 36007 ft 462 kts 342°
2026-05-05 02:53 23.37308 -78.67687 35991 ft 461 kts 342°
2026-05-05 02:54 23.43634 -78.68887 36001 ft 460 kts 342°
2026-05-05 02:54 23.49956 -78.70082 36006 ft 460 kts 342°
2026-05-05 02:55 23.56269 -78.71275 35992 ft 459 kts 342°
2026-05-05 02:55 23.62558 -78.72469 36006 ft 458 kts 342°
2026-05-05 02:56 23.68858 -78.73661 35996 ft 459 kts 342°
2026-05-05 02:56 23.75125 -78.74862 35993 ft 459 kts 342°
2026-05-05 02:57 23.81430 -78.76064 35990 ft 458 kts 342°
2026-05-05 02:57 23.87754 -78.77270 36000 ft 459 kts 342°
2026-05-05 02:58 23.94053 -78.78478 35993 ft 457 kts 342°
2026-05-05 02:58 24.00086 -78.80286 35993 ft 447 kts 332°
2026-05-05 02:59 24.05575 -78.83260 36018 ft 437 kts 323°
2026-05-05 02:59 24.10765 -78.86694 35998 ft 434 kts 323°
2026-05-05 03:00 24.15954 -78.90135 35995 ft 433 kts 322°
2026-05-05 03:00 24.21114 -78.93565 35986 ft 432 kts 323°
2026-05-05 03:01 24.26252 -78.96974 35993 ft 433 kts 323°
2026-05-05 03:01 24.31420 -79.00401 35974 ft 433 kts 322°
2026-05-05 03:02 24.36556 -79.03808 35982 ft 431 kts 323°
2026-05-05 03:02 24.41684 -79.07208 35980 ft 429 kts 323°
2026-05-05 03:03 24.46767 -79.10577 35998 ft 428 kts 322°
2026-05-05 03:03 24.51883 -79.13973 36006 ft 429 kts 322°
2026-05-05 03:04 24.56988 -79.17388 35982 ft 428 kts 322°
2026-05-05 03:04 24.59524 -79.19087 35805 ft 429 kts 323°
2026-05-05 03:04 24.62059 -79.20784 35092 ft 429 kts 323°
2026-05-05 03:04 24.64613 -79.22495 34382 ft 429 kts 323°
2026-05-05 03:05 24.67142 -79.24184 33682 ft 430 kts 323°
2026-05-05 03:05 24.69720 -79.25906 32973 ft 431 kts 324°
2026-05-05 03:05 24.72284 -79.27621 32273 ft 433 kts 324°
2026-05-05 03:05 24.74847 -79.29333 31561 ft 435 kts 324°
2026-05-05 03:06 24.77449 -79.31068 30811 ft 437 kts 324°
2026-05-05 03:06 24.80037 -79.32800 29987 ft 441 kts 324°
2026-05-05 03:06 24.82661 -79.34553 29114 ft 444 kts 324°
2026-05-05 03:06 24.85276 -79.36302 28524 ft 432 kts 324°
2026-05-05 03:07 24.87805 -79.38000 28022 ft 420 kts 324°
2026-05-05 03:07 24.90263 -79.39651 27646 ft 417 kts 324°
2026-05-05 03:07 24.92762 -79.41331 27075 ft 417 kts 324°
2026-05-05 03:07 24.95221 -79.42983 26396 ft 414 kts 324°
2026-05-05 03:08 24.97665 -79.44624 25675 ft 405 kts 324°
2026-05-05 03:08 25.00035 -79.46214 25046 ft 399 kts 324°
2026-05-05 03:08 25.02394 -79.47800 24498 ft 399 kts 324°
2026-05-05 03:08 25.04751 -79.49386 23653 ft 403 kts 324°
2026-05-05 03:09 25.07124 -79.50980 23124 ft 391 kts 324°
2026-05-05 03:09 25.09410 -79.52511 22528 ft 379 kts 323°
2026-05-05 03:09 25.11630 -79.54003 22017 ft 369 kts 323°
2026-05-05 03:09 25.13794 -79.55468 21526 ft 362 kts 323°
2026-05-05 03:10 25.14127 -79.55694 21480 ft 362 kts 323°
2026-05-05 03:10 25.16259 -79.57137 21149 ft 358 kts 323°
2026-05-05 03:10 25.18359 -79.58559 20703 ft 353 kts 323°
2026-05-05 03:10 25.20435 -79.59964 20252 ft 346 kts 323°
2026-05-05 03:11 25.22485 -79.61350 19796 ft 341 kts 323°
2026-05-05 03:11 25.24494 -79.62705 19344 ft 336 kts 323°
2026-05-05 03:11 25.26454 -79.64031 18899 ft 331 kts 323°
2026-05-05 03:11 25.28411 -79.65356 18453 ft 326 kts 323°
2026-05-05 03:12 25.30327 -79.66650 18026 ft 326 kts 323°
2026-05-05 03:12 25.32289 -79.67977 17605 ft 329 kts 323°
2026-05-05 03:12 25.34246 -79.69300 17174 ft 334 kts 323°
2026-05-05 03:12 25.36237 -79.70655 16719 ft 337 kts 322°
2026-05-05 03:13 25.38135 -79.72176 16263 ft 336 kts 315°
2026-05-05 03:13 25.39811 -79.73947 15832 ft 334 kts 307°
2026-05-05 03:13 25.41230 -79.75979 15387 ft 331 kts 301°
2026-05-05 03:13 25.42532 -79.78056 14941 ft 329 kts 301°
2026-05-05 03:14 25.43830 -79.80115 14477 ft 328 kts 301°
2026-05-05 03:14 25.45138 -79.82172 14023 ft 325 kts 301°
2026-05-05 03:14 25.46442 -79.84212 13582 ft 324 kts 301°
2026-05-05 03:14 25.47746 -79.86250 13143 ft 323 kts 302°
2026-05-05 03:15 25.49030 -79.88256 12801 ft 323 kts 302°
2026-05-05 03:15 25.50338 -79.90304 12404 ft 322 kts 302°
2026-05-05 03:15 25.51616 -79.92303 12036 ft 321 kts 301°
2026-05-05 03:15 25.52911 -79.94327 11673 ft 317 kts 302°
2026-05-05 03:16 25.54171 -79.96295 11347 ft 309 kts 302°
2026-05-05 03:16 25.55400 -79.98218 11118 ft 301 kts 302°
2026-05-05 03:16 25.56588 -80.00072 10968 ft 293 kts 301°
2026-05-05 03:16 25.57759 -80.01901 10912 ft 285 kts 301°
2026-05-05 03:17 25.58883 -80.03656 10830 ft 280 kts 301°
2026-05-05 03:17 25.60012 -80.05425 10503 ft 276 kts 301°
2026-05-05 03:17 25.61106 -80.07140 10238 ft 272 kts 301°
2026-05-05 03:17 25.62196 -80.08849 9946 ft 271 kts 301°
2026-05-05 03:18 25.63283 -80.10554 9635 ft 270 kts 301°
2026-05-05 03:18 25.64350 -80.12237 9317 ft 271 kts 300°
2026-05-05 03:18 25.65380 -80.13999 9025 ft 269 kts 297°
2026-05-05 03:18 25.66274 -80.15857 8426 ft 278 kts 292°
2026-05-05 03:19 25.67870 -80.19643 7988 ft 260 kts 292°
2026-05-05 03:19 25.68610 -80.21393 7957 ft 248 kts 292°
2026-05-05 03:19 25.69348 -80.23140 7673 ft 250 kts 292°
2026-05-05 03:20 25.70086 -80.24885 7326 ft 249 kts 293°
2026-05-05 03:20 25.70787 -80.26613 6986 ft 248 kts 288°
2026-05-05 03:20 25.71229 -80.28441 6618 ft 246 kts 276°
2026-05-05 03:20 25.71252 -80.30336 6081 ft 240 kts 265°
2026-05-05 03:21 25.71120 -80.32107 5780 ft 228 kts 265°
2026-05-05 03:21 25.70996 -80.33846 5320 ft 224 kts 266°
2026-05-05 03:21 25.70892 -80.35551 4863 ft 219 kts 266°
2026-05-05 03:21 25.70801 -80.37226 4392 ft 217 kts 267°
2026-05-05 03:22 25.70718 -80.38892 3875 ft 218 kts 268°
2026-05-05 03:22 25.70641 -80.40551 3360 ft 219 kts 268°
2026-05-05 03:22 25.70561 -80.42245 2974 ft 219 kts 268°
2026-05-05 03:22 25.70483 -80.43935 2974 ft 222 kts 268°
2026-05-05 03:23 25.70404 -80.45648 2961 ft 222 kts 268°
2026-05-05 03:23 25.70322 -80.47348 2967 ft 222 kts 268°
2026-05-05 03:23 25.70241 -80.49052 2967 ft 222 kts 268°
2026-05-05 03:23 25.70304 -80.50759 2955 ft 220 kts 289°
2026-05-05 03:24 25.71094 -80.52166 2974 ft 216 kts 324°
2026-05-05 03:24 25.72436 -80.52831 2975 ft 211 kts 355°
2026-05-05 03:24 25.73904 -80.52883 2959 ft 210 kts
2026-05-05 03:24 25.75350 -80.52771 2958 ft 209 kts 14°
2026-05-05 03:25 25.76756 -80.52312 2970 ft 207 kts 22°
2026-05-05 03:25 25.77988 -80.51620 2954 ft 194 kts 40°
2026-05-05 03:25 25.78856 -80.50542 2967 ft 184 kts 69°
2026-05-05 03:25 25.79156 -80.49188 3128 ft 178 kts 82°
2026-05-05 03:26 25.79288 -80.47763 2992 ft 190 kts 85°
2026-05-05 03:26 25.79378 -80.46332 2747 ft 177 kts 85°
2026-05-05 03:26 25.79448 -80.45025 2513 ft 165 kts 85°
2026-05-05 03:26 25.79507 -80.43787 2340 ft 160 kts 85°
2026-05-05 03:27 25.79565 -80.42539 2134 ft 162 kts 86°
2026-05-05 03:27 25.79617 -80.41297 1899 ft 159 kts 86°
2026-05-05 03:27 25.79668 -80.40095 1708 ft 155 kts 86°
2026-05-05 03:27 25.79716 -80.38911 1516 ft 152 kts 86°
2026-05-05 03:28 25.79763 -80.37746 1345 ft 155 kts 86°
2026-05-05 03:28 25.79818 -80.36517 1113 ft 161 kts 86°
2026-05-05 03:28 25.79864 -80.35300 904 ft 159 kts 86°
2026-05-05 03:28 25.79908 -80.34063 681 ft 157 kts 86°
2026-05-05 03:29 25.79954 -80.32825 526 ft 167 kts 86°
2026-05-05 03:29 25.80008 -80.31544 294 ft 163 kts 86°
2026-05-05 03:29 25.80061 -80.30297 82 ft 160 kts 86°
2026-05-05 03:29 25.80117 -80.29083 17 ft 134 kts 87°
2026-05-05 03:30 25.80145 -80.28348 17 ft 65 kts 88°
2026-05-05 03:30 25.80162 -80.27876 16 ft 43 kts 88°
2026-05-05 03:30 25.80175 -80.27665 16 ft 10 kts 68°
2026-05-05 03:30 25.80230 -80.27632 16 ft 9 kts
2026-05-05 03:31 25.80314 -80.27632 16 ft 16 kts 357°
2026-05-05 03:31 25.80427 -80.27638 16 ft 14 kts 358°
2026-05-05 03:31 25.80497 -80.27673 16 ft 10 kts 292°
2026-05-05 03:31 25.80500 -80.27753 16 ft 11 kts 267°
2026-05-05 03:32 25.80494 -80.27893 16 ft 24 kts 268°
2026-05-05 03:32 25.80485 -80.28104 16 ft 28 kts 267°
2026-05-05 03:32 25.80477 -80.28310 16 ft 25 kts 267°
2026-05-05 03:32 25.80469 -80.28500 16 ft 24 kts 267°
2026-05-05 03:33 25.80462 -80.28681 16 ft 23 kts 268°
2026-05-05 03:33 25.80455 -80.28861 16 ft 23 kts 267°
2026-05-05 03:33 25.80447 -80.29031 16 ft 21 kts 267°
2026-05-05 03:33 25.80440 -80.29193 16 ft 21 kts 267°
2026-05-05 03:34 25.80434 -80.29332 16 ft 10 kts 267°
2026-05-05 03:34 25.80441 -80.29368 16 ft 2 kts 314°
2026-05-05 03:34 25.80474 -80.29381 16 ft 6 kts 354°
2026-05-05 03:34 25.80511 -80.29383 16 ft 3 kts 358°
2026-05-05 03:35 25.80519 -80.29383 15 ft 0 kts 358°